Theta_e
318 317 317 316 316 315 314 314 313 311 309 307 305 303 302 302 303 302 302 301 301 301 301 301 301 301 301 301 302 301 302 302 302 302 302 302 305 305 306 311 314 316 318 319 320 321 322 322 322 322 322 322 322 322 322 321 321 321 322 322 321 320 320 320 320 321 321 321 322 323 323 323 324 324 324 325 325 325 327 328 328 330 330 331 332
316 316 314 314 313 313 312 312 310 309 307 305 303 302 302 302 303 303 302 301 301 300 300 300 300 300 300 301 301 301 301 301 302 301 302 302 303 305 303 308 313 316 317 318 319 319 319 320 320 321 321 321 321 321 321 321 320 321 321 321 320 320 319 319 320 320 320 321 321 322 322 322 322 322 322 323 323 324 324 326 326 328 328 328 329
315 314 312 312 311 310 310 309 308 306 305 303 302 303 302 302 302 301 300 300 300 299 299 299 299 299 300 301 301 301 301 301 301 301 301 302 302 304 306 305 309 314 315 316 318 318 319 319 319 320 320 320 320 320 320 320 320 320 320 320 319 319 319 319 319 319 319 320 320 320 320 320 320 320 321 322 322 323 323 324 324 324 325 325 326
314 312 311 310 309 308 308 307 307 305 303 303 301 302 302 303 303 302 302 301 299 298 300 298 299 299 300 300 301 300 300 300 300 300 301 302 302 303 305 307 306 307 312 314 315 315 318 318 318 318 318 319 319 319 319 319 319 318 318 319 319 318 318 318 318 318 319 319 319 320 319 318 319 319 320 321 322 322 321 322 322 322 323 323 324
312 311 309 309 308 306 305 305 305 303 302 302 302 302 301 300 300 300 299 300 299 298 299 299 298 298 299 299 300 300 300 300 300 300 300 301 301 301 303 306 308 305 305 308 311 313 316 317 316 316 317 317 318 318 318 318 318 317 317 318 317 317 317 317 317 316 317 318 318 318 318 318 318 319 320 320 320 320 320 320 321 321 322 322 322
310 309 308 307 306 305 304 303 303 302 301 301 299 299 299 299 299 298 298 297 298 297 296 297 297 298 298 299 300 299 299 299 299 299 300 300 300 301 301 302 303 305 305 302 304 308 313 314 315 316 316 317 316 316 317 317 316 316 316 316 315 316 317 317 316 316 317 318 318 318 317 317 318 318 319 319 319 319 319 320 320 320 321 321 321
309 308 306 305 304 303 302 302 302 301 300 299 299 299 300 300 298 297 297 297 298 297 298 298 297 298 298 298 298 298 299 298 299 299 299 300 300 300 300 300 299 301 301 301 301 302 306 310 312 313 314 314 316 316 317 316 316 316 315 315 316 316 316 315 315 316 317 317 317 316 316 316 317 317 317 317 318 318 319 319 319 319 319 320 320
307 307 305 304 303 302 301 301 301 299 299 299 300 299 299 300 299 299 296 296 297 296 298 297 298 297 298 298 298 298 298 298 298 298 299 299 299 299 299 299 299 298 298 298 298 299 300 304 307 309 310 311 313 314 315 315 315 315 315 315 315 314 314 314 315 315 316 316 316 315 315 315 316 316 316 316 316 317 317 317 318 317 318 318 318
306 305 304 303 302 302 300 300 300 299 299 299 298 299 300 300 298 298 298 296 296 297 297 297 297 297 297 297 298 297 298 298 298 298 299 298 298 298 297 297 296 297 297 297 297 296 296 299 302 304 306 308 311 312 313 314 314 315 315 315 315 315 314 314 314 314 315 315 314 315 315 315 315 315 315 316 316 316 316 316 316 316 317 317 317
305 304 303 303 302 301 300 299 298 299 298 298 298 299 299 299 296 297 298 296 295 296 295 297 297 297 296 296 296 297 297 297 297 296 297 297 297 297 296 296 297 297 296 297 297 296 296 296 297 299 300 304 309 310 311 312 314 315 315 315 315 315 314 313 313 313 313 313 313 313 313 313 313 313 314 314 315 315 314 315 315 315 316 316 317
304 303 302 302 301 301 299 299 298 298 298 297 298 298 298 298 297 295 296 297 296 296 296 297 297 296 295 295 296 296 297 296 296 297 296 297 296 296 297 295 296 296 296 296 295 296 296 297 297 298 298 299 305 309 310 312 312 313 314 314 314 313 313 312 312 312 311 311 312 312 312 312 312 312 312 313 313 313 313 314 314 314 314 314 315
303 302 302 301 300 300 298 298 297 297 297 297 296 296 297 297 297 296 294 294 297 298 297 296 295 295 294 294 295 295 295 295 296 296 295 296 295 295 294 295 294 295 295 295 295 295 296 296 296 296 296 297 299 303 305 309 310 310 312 313 312 313 312 311 310 310 310 310 310 311 311 311 311 311 311 311 311 312 312 312 313 313 313 313 314
302 302 301 300 300 300 298 297 297 297 296 297 297 297 297 297 296 295 294 293 294 296 297 297 294 292 293 293 293 294 293 293 293 294 294 294 294 294 293 293 294 294 294 294 295 295 295 295 295 296 296 298 299 298 300 302 305 309 310 310 311 311 311 311 310 309 309 309 309 309 309 309 309 310 310 310 311 311 311 312 312 313 313 313 313
301 301 300 300 299 298 297 296 296 296 297 298 298 297 297 297 296 294 296 293 292 295 297 295 293 292 290 290 291 291 292 292 292 292 294 294 294 294 294 293 293 293 293 293 294 294 294 295 295 295 296 296 297 299 299 299 298 303 306 308 309 310 310 310 309 308 308 308 308 307 307 308 308 309 309 310 310 310 311 311 312 312 313 313 313
301 300 300 300 299 298 297 296 296 296 296 297 297 296 296 296 295 294 293 295 294 295 296 298 293 295 294 292 289 288 290 290 292 291 292 293 293 293 293 293 292 293 293 293 293 293 294 294 295 295 295 296 296 297 295 295 295 295 299 303 306 307 308 308 308 307 306 306 306 307 307 307 308 308 308 308 308 308 309 310 310 311 312 312 312
301 300 300 300 299 298 297 296 295 296 296 295 295 295 295 295 295 295 294 292 293 291 296 296 297 295 290 293 292 291 288 288 289 290 291 292 292 292 292 292 292 293 293 292 292 293 293 294 294 294 295 295 296 296 296 295 295 295 294 295 298 302 304 306 306 306 305 305 307 306 306 306 306 306 307 307 306 307 307 308 309 309 310 310 311
301 300 299 299 299 298 297 296 295 296 296 295 295 295 295 295 295 295 294 292 292 291 292 296 295 299 295 291 289 289 292 293 291 289 290 290 291 292 292 292 292 292 292 292 292 293 293 293 294 294 294 295 296 296 296 296 295 294 294 293 295 298 300 302 305 305 305 304 305 305 305 304 304 304 305 305 306 306 307 307 308 308 309 309 309
300 300 299 299 299 298 298 297 296 295 295 295 295 296 295 295 295 296 294 295 294 293 291 293 295 297 295 297 299 294 294 293 291 287 289 291 292 291 291 291 291 291 291 291 292 292 292 292 293 293 294 295 295 295 294 294 293 292 292 293 295 297 298 300 301 303 304 304 304 304 304 304 304 303 304 304 305 305 306 306 307 307 307 308 308
299 299 299 299 299 299 298 297 296 295 295 295 295 295 295 295 295 295 295 296 296 292 292 291 292 292 294 295 296 291 299 293 290 292 286 289 290 290 290 291 291 291 291 291 291 291 291 292 293 293 294 294 294 294 294 293 292 291 290 292 294 295 296 296 298 299 301 302 302 303 303 303 303 303 304 304 304 305 305 306 306 306 306 306 307
298 299 299 298 298 298 298 298 296 296 294 294 294 295 295 296 295 295 296 295 297 294 293 293 289 290 293 292 291 293 296 296 299 295 294 288 287 290 291 290 291 291 291 290 290 291 291 292 292 292 293 294 294 294 294 293 293 291 290 291 292 294 295 295 295 295 296 298 299 301 301 301 302 303 303 303 303 304 304 305 305 305 305 306 306
298 298 298 298 297 298 298 297 296 295 294 294 294 295 295 294 294 293 294 294 295 296 296 293 292 294 291 291 293 293 294 295 295 297 294 292 291 288 287 289 290 290 289 290 290 291 291 291 292 292 292 293 293 293 293 293 292 291 289 289 291 292 293 294 294 294 294 294 295 297 298 299 300 301 302 302 302 303 303 304 304 304 304 305 306
297 297 297 298 298 297 297 297 296 296 293 294 294 295 295 294 294 293 294 294 294 295 296 295 294 296 293 293 291 291 292 291 292 293 292 296 292 289 289 286 285 288 289 289 289 290 291 291 291 292 292 292 292 292 293 292 291 290 288 288 288 289 291 292 293 293 293 293 293 294 295 295 297 299 300 301 302 302 303 303 303 303 304 304 305
296 296 297 297 297 297 297 296 296 295 294 294 294 294 294 294 294 294 294 294 293 293 295 296 295 296 294 293 292 292 292 291 291 292 292 290 291 292 291 289 288 287 287 289 289 290 290 291 291 291 292 291 291 291 291 290 289 287 286 286 287 288 289 290 291 292 292 292 292 292 293 293 294 295 298 300 301 302 302 302 302 303 303 303 304
295 295 295 296 296 296 296 296 295 295 294 294 294 294 294 294 293 293 293 294 293 293 293 294 294 295 294 294 294 295 295 295 295 294 293 293 292 291 290 290 289 289 289 287 289 289 289 290 291 291 291 291 291 290 289 289 288 285 286 285 285 286 287 289 290 291 291 291 291 291 292 293 293 294 295 297 299 300 301 301 302 302 302 302 302
294 294 295 295 295 295 295 294 294 295 294 294 294 294 293 293 293 292 292 292 292 292 291 293 293 292 293 294 295 296 296 298 298 295 295 296 294 292 290 289 287 286 287 287 286 288 289 289 290 291 290 290 290 289 289 289 288 285 284 284 283 284 285 286 288 289 290 290 290 290 290 291 292 293 294 295 296 297 298 300 301 301 301 301 301
295 295 295 295 295 295 295 295 295 295 294 294 294 293 293 292 292 292 292 292 292 292 292 293 293 294 294 293 293 294 296 296 296 296 295 294 292 291 288 287 289 287 286 286 288 285 287 289 290 290 290 290 289 289 288 287 288 284 282 283 284 283 283 285 287 288 289 289 289 289 290 290 290 292 293 294 295 295 295 297 299 299 300 300 300
296 296 296 295 294 294 294 294 294 294 294 293 293 293 293 292 292 292 292 292 292 291 291 292 291 292 293 293 293 294 294 293 295 295 295 294 293 292 288 285 284 285 284 286 286 286 287 287 289 289 289 289 288 288 287 287 285 283 281 285 285 282 282 283 285 287 288 288 288 289 289 289 290 291 292 292 294 294 294 296 296 296 297 298 298
297 297 296 295 294 293 294 293 294 294 293 293 293 292 292 291 291 291 290 292 290 290 290 290 291 291 292 293 293 292 293 293 294 294 294 294 294 294 291 289 285 282 285 284 284 285 289 286 287 289 288 288 288 288 285 284 286 282 282 285 284 284 282 282 285 286 287 287 287 288 288 289 289 290 291 291 292 292 293 294 293 294 294 295 295
297 296 295 295 294 293 293 293 293 293 293 293 292 292 291 290 290 290 290 290 290 290 290 289 290 291 291 292 291 292 292 292 292 293 294 294 295 294 293 291 290 287 283 283 284 284 286 287 284 287 288 287 287 287 285 286 284 283 285 284 284 284 282 282 284 285 285 286 286 287 288 288 289 289 290 290 291 291 292 292 292 292 292 293 293
295 296 295 294 294 292 293 292 292 292 292 292 292 291 291 290 290 290 290 290 289 289 290 290 290 290 290 291 291 291 292 291 291 291 292 292 292 293 292 292 292 289 287 284 285 287 286 286 287 286 286 286 287 286 286 285 282 282 284 284 283 283 282 282 283 284 284 285 286 286 287 288 288 289 289 289 289 290 291 291 291 291 291 292 293
294 294 294 293 293 292 292 292 292 291 291 291 291 290 290 289 289 289 289 290 289 288 289 289 289 289 288 289 290 290 291 290 290 290 291 291 291 292 291 292 291 292 290 288 286 288 289 285 286 288 285 285 285 285 285 285 282 282 283 283 283 282 280 282 282 283 284 284 285 286 287 287 288 288 288 289 289 290 290 290 290 290 291 291 292
294 294 293 292 292 291 291 291 291 291 290 290 290 290 289 289 289 288 288 289 288 287 288 289 288 288 288 287 288 289 290 289 289 289 289 289 290 290 290 290 289 290 290 289 287 286 287 287 286 286 286 285 285 284 284 284 282 279 283 283 283 280 281 282 282 282 283 283 285 286 287 287 287 287 287 288 288 289 289 289 290 290 290 291 292
293 292 292 292 292 291 291 291 290 290 290 289 289 289 289 288 288 288 288 287 287 287 288 287 287 287 287 287 287 288 289 288 288 288 288 289 289 289 289 289 288 288 287 287 285 285 285 287 286 285 285 285 283 284 283 283 282 282 281 282 282 282 282 283 283 282 282 283 284 285 286 287 286 287 287 287 287 288 288 288 288 289 290 291 290
292 292 292 292 291 291 290 290 290 290 290 290 289 289 288 288 287 288 287 287 286 286 287 286 286 286 286 286 286 287 288 287 287 287 287 287 287 287 287 287 287 287 287 286 286 285 283 283 284 284 283 284 282 284 283 282 281 282 281 282 282 282 282 283 283 284 282 282 284 285 286 286 286 286 286 286 287 287 287 288 288 289 290 290 289
291 291 291 291 291 290 290 289 290 289 289 289 289 288 288 287 287 287 287 287 286 285 285 286 286 285 284 285 285 286 287 286 286 286 287 286 286 286 285 285 286 286 286 287 286 284 283 282 284 282 282 282 283 282 282 282 281 281 281 281 281 282 282 282 283 283 282 282 284 285 285 285 285 285 285 286 286 287 287 288 288 288 288 288 288
290 290 290 291 291 290 289 289 289 289 288 288 288 287 287 287 287 286 286 286 286 285 285 285 285 284 284 284 285 285 285 284 285 285 285 286 285 285 284 284 284 285 285 285 286 285 285 281 282 282 282 281 281 282 281 281 280 280 280 281 282 281 282 282 282 283 283 282 283 284 284 284 284 284 285 285 286 286 287 287 287 287 287 287 287
289 289 289 290 289 289 288 288 288 288 288 288 287 287 287 287 286 286 286 285 285 285 285 285 285 284 284 284 285 285 284 283 284 284 284 284 284 283 283 283 283 283 283 283 284 285 284 282 281 282 282 281 281 281 280 279 279 280 281 280 281 281 282 282 283 283 282 282 282 282 282 283 283 284 284 285 285 285 286 286 286 286 286 286 285
289 289 289 289 288 288 288 288 288 287 287 287 287 286 286 286 286 286 286 286 285 285 285 285 285 284 284 284 284 284 284 283 284 284 284 283 283 283 283 283 282 282 282 282 283 283 284 283 281 279 280 279 279 279 280 280 279 279 279 280 281 281 281 281 282 283 283 283 283 283 282 283 283 283 284 284 285 285 285 285 285 285 284 284 284
288 288 289 288 288 287 288 288 288 288 287 287 286 285 285 285 285 284 285 285 284 284 284 284 284 284 284 284 284 284 284 284 284 284 283 283 283 283 283 283 282 282 281 281 281 281 282 282 281 280 278 279 279 277 279 280 280 281 280 279 279 281 281 281 281 282 283 283 282 282 282 282 282 283 283 283 284 284 284 284 284 284 283 283 283
288 288 288 288 288 288 287 287 288 288 288 288 288 287 286 285 285 284 284 284 284 284 283 284 284 284 284 284 284 284 284 284 284 285 283 282 282 282 283 283 282 281 281 280 280 280 280 280 279 278 278 278 278 279 279 279 278 278 280 280 280 280 280 282 282 281 282 282 282 282 282 282 283 283 282 282 282 282 283 283 282 282 282 282 283
288 288 288 287 287 287 287 287 286 287 287 287 287 287 286 285 284 284 284 284 283 283 283 283 283 283 284 284 284 284 285 284 284 285 284 283 282 282 282 282 281 280 280 280 279 279 279 278 278 278 277 277 277 277 277 277 277 278 280 280 279 281 281 281 281 282 282 281 282 282 282 282 281 281 281 280 281 281 281 281 281 281 282 282 283
287 287 287 287 287 287 286 286 286 286 286 287 287 287 287 285 284 284 284 284 284 283 283 283 283 283 284 284 284 284 284 283 284 284 285 285 284 283 282 282 281 280 280 279 278 279 278 277 277 277 276 276 277 277 277 278 280 281 280 279 278 280 280 280 281 281 282 281 280 280 281 282 280 279 280 279 281 281 281 281 281 281 281 282 283
286 286 287 286 286 286 286 286 286 286 286 287 287 289 289 289 287 285 285 284 284 284 283 283 283 283 283 283 283 283 283 283 284 285 285 285 284 284 283 283 283 281 279 278 278 278 277 277 277 277 277 276 277 278 278 279 279 279 279 279 279 279 278 279 278 280 282 281 280 278 278 280 279 278 278 279 280 280 281 281 281 281 281 282 283
285 285 285 286 286 286 286 286 286 286 286 287 288 289 289 289 288 286 285 284 284 284 283 283 283 283 283 282 282 283 283 283 282 282 284 284 285 284 284 283 283 283 283 280 278 277 277 277 277 277 277 277 277 277 278 278 278 279 279 279 279 279 278 278 279 278 281 282 278 277 277 279 279 278 277 278 279 280 280 280 281 281 282 282 282
284 284 284 285 285 286 286 286 286 286 286 287 289 289 289 289 289 288 285 285 284 284 284 283 283 283 283 282 281 282 282 282 282 282 282 282 284 284 284 283 283 283 283 283 282 280 279 278 278 277 278 278 277 277 278 279 280 278 279 278 278 278 279 278 279 279 280 281 278 276 275 277 278 277 277 279 279 280 280 280 281 281 281 281 282
284 284 284 284 285 285 285 285 286 286 286 287 288 289 289 289 289 289 286 285 284 284 284 283 283 283 283 282 281 281 282 282 282 281 281 281 282 282 282 281 280 281 283 283 282 280 279 279 279 277 278 279 278 278 280 281 280 278 278 277 279 278 278 278 280 280 281 280 276 275 273 275 277 277 276 278 279 279 279 280 280 281 281 281 281
282 282 283 283 283 284 285 285 285 285 286 287 288 288 289 289 289 289 287 286 285 284 284 284 283 283 283 283 282 282 282 282 282 281 281 280 280 280 280 279 279 280 280 280 280 279 278 278 278 278 279 279 279 280 280 281 280 280 281 279 279 279 279 280 278 278 278 279 277 275 271 275 278 276 276 277 278 278 278 279 280 280 280 281 281
282 283 283 283 283 283 284 284 284 284 286 287 287 288 288 289 289 287 286 286 285 285 284 284 283 283 283 283 282 282 282 282 282 283 282 281 280 279 278 278 278 279 279 280 281 280 279 278 278 278 279 279 281 280 280 280 280 280 280 280 279 277 276 274 273 275 274 277 276 274 272 273 277 275 275 277 277 276 277 278 279 279 280 280 280
280 281 281 281 282 283 283 283 283 284 285 286 286 287 287 288 288 287 286 286 286 285 284 285 283 282 282 282 282 282 281 281 282 284 284 282 279 278 277 276 277 277 277 279 281 281 280 280 280 281 281 282 282 282 282 281 280 280 278 275 273 275 273 272 272 273 273 275 275 275 273 272 275 275 274 275 275 275 275 276 277 278 279 279 279
278 279 280 281 281 282 282 282 283 283 284 285 286 286 286 287 287 286 286 286 285 285 285 285 284 282 282 282 282 281 281 281 283 284 284 282 279 278 277 276 275 275 276 277 278 279 280 280 281 281 281 282 282 282 282 282 281 281 276 273 275 275 272 273 271 273 274 274 274 275 272 271 274 275 272 273 274 274 275 276 277 277 277 277 278
277 279 279 280 280 281 282 282 282 282 283 284 285 285 286 286 286 286 286 285 285 285 285 284 284 283 281 282 282 282 281 281 283 284 285 282 279 278 277 276 274 274 275 277 277 277 277 277 278 279 280 281 280 279 280 282 282 280 277 276 276 274 272 272 271 271 270 271 274 275 270 271 273 273 272 269 270 273 275 275 276 275 275 275 276
Wind_Speed
10 10 9 10 9 8 8 8 7 6 6 5 6 5 5 5 5 5 5 4 4 3 3 3 2 2 2 2 1 2 2 1 2 1 1 1 1 4 8 5 3 2 2 2 3 4 5 5 6 6 6 6 7 7 7 8 7 6 9 11 10 9 9 9 9 9 8 8 8 9 10 10 10 11 11 11 11 12 12 12 13 13 13 14 14
11 10 10 10 8 8 8 8 8 7 6 6 6 5 6 5 5 5 5 5 4 4 3 3 2 2 1 2 1 1 1 1 1 1 1 1 2 4 6 8 5 4 4 4 3 3 4 4 4 5 6 6 6 6 6 7 6 7 10 9 9 9 9 9 8 8 9 8 9 10 10 10 10 11 11 11 11 11 11 12 12 13 13 13 14
10 11 10 9 8 8 8 7 8 7 7 6 5 5 5 5 6 6 5 5 4 4 3 4 3 2 2 1 1 1 1 1 1 1 1 2 2 3 4 7 9 7 4 5 5 5 5 5 5 4 5 5 5 4 6 7 6 7 8 8 8 8 8 9 9 9 9 9 9 10 10 10 10 10 10 10 10 11 11 11 12 12 13 13 13
10 10 10 10 10 10 9 8 8 7 7 6 6 5 5 4 5 5 5 5 5 4 3 4 3 3 2 2 2 2 2 2 2 2 2 2 2 3 3 4 8 13 11 8 8 7 8 7 6 5 4 5 5 5 6 7 6 7 6 7 7 7 8 8 9 10 9 9 10 10 10 10 10 10 10 10 10 11 11 11 11 11 12 12 13
10 10 10 9 9 10 9 8 8 8 7 7 7 6 5 5 5 5 5 5 5 4 3 3 3 3 2 2 2 2 2 2 2 3 3 2 2 3 4 4 5 9 14 15 11 10 9 8 7 5 5 5 5 6 7 7 7 5 6 7 7 6 7 8 8 9 9 9 9 10 10 10 10 10 10 11 11 11 11 11 11 11 12 12 12
10 10 10 9 9 9 9 9 7 8 7 7 7 7 6 6 6 6 5 6 5 5 5 4 4 3 3 3 2 3 3 3 3 3 3 3 3 3 3 4 3 4 5 11 14 13 10 9 8 7 7 7 7 6 6 7 6 6 6 6 6 6 8 8 7 8 9 9 10 10 10 10 9 9 10 11 11 11 11 11 12 12 12 13 13
10 10 10 9 9 9 9 8 7 8 7 7 8 7 7 7 7 7 6 5 5 5 5 4 5 4 3 3 3 3 3 3 3 3 3 3 3 3 3 4 4 4 3 4 8 13 12 11 10 10 9 8 7 6 6 6 6 6 6 6 7 7 7 6 7 8 8 10 10 10 10 9 9 9 9 10 11 11 11 12 12 12 13 12 13
10 10 10 9 9 9 9 7 8 7 7 7 7 8 7 7 6 7 8 6 6 5 4 4 4 4 3 3 3 2 3 3 3 3 3 3 3 3 3 4 3 3 3 4 5 7 11 11 12 12 11 9 7 5 5 5 5 7 6 7 9 8 7 7 7 8 8 9 10 9 9 9 9 9 10 10 10 11 12 12 12 12 12 12 12
11 11 10 10 9 8 8 8 8 8 7 8 7 7 7 7 6 5 6 7 6 6 5 4 4 4 3 3 3 3 3 3 3 3 2 3 4 4 4 4 4 3 3 3 4 4 8 10 11 13 13 10 8 5 4 4 6 6 7 8 9 9 8 8 8 8 9 10 10 10 10 10 10 10 10 11 11 11 12 11 11 12 12 12 12
12 11 10 9 9 8 7 9 9 8 7 7 7 6 6 7 8 5 5 7 6 7 6 4 4 4 4 3 3 2 3 3 3 3 3 3 3 4 4 3 3 3 3 3 3 3 4 6 8 11 14 11 10 8 6 5 6 7 8 8 9 9 9 9 9 9 9 10 9 9 9 9 9 9 10 11 11 11 12 12 12 12 12 13 13
12 12 11 10 9 9 8 10 9 8 8 8 7 7 6 6 7 7 4 4 6 6 6 6 5 4 4 4 3 3 2 3 3 2 3 3 3 3 3 3 3 3 3 3 3 3 3 2 3 4 6 12 11 11 9 6 5 7 7 8 8 9 9 9 9 9 9 9 9 9 9 9 10 10 11 10 11 11 11 11 12 12 12 12 12
13 12 12 11 11 10 10 10 9 8 9 9 8 8 10 9 8 9 8 3 1 4 7 7 7 6 5 4 3 3 4 3 2 3 2 3 3 2 3 3 3 3 3 3 3 3 3 3 3 4 5 8 11 11 14 15 7 5 7 7 7 8 9 9 9 9 9 9 9 10 10 10 10 10 10 11 11 11 11 11 10 10 10 10 10
12 13 13 12 11 9 10 10 9 9 9 10 10 10 9 9 8 7 10 8 5 5 7 8 9 6 5 4 3 3 4 2 3 2 3 3 2 3 3 3 3 3 3 3 3 3 3 3 3 3 3 4 6 9 13 18 18 13 10 8 6 7 8 9 9 9 8 9 10 10 10 10 10 10 11 11 11 11 11 11 11 11 10 10 10
11 12 11 12 12 10 10 10 10 10 9 8 8 8 9 8 9 8 6 9 7 8 8 10 6 8 8 5 3 3 2 2 2 3 3 2 2 3 3 3 3 3 3 3 3 3 3 3 3 3 3 4 4 5 6 9 13 17 12 10 9 8 8 9 9 9 9 9 9 9 10 11 11 11 12 11 12 12 11 11 11 12 11 11 11
11 11 11 11 10 10 11 11 11 10 9 9 9 10 10 11 12 10 9 6 5 7 9 9 7 7 7 7 5 5 4 3 3 4 4 3 3 3 3 3 3 2 3 3 3 3 3 3 3 3 4 4 4 5 7 8 10 16 16 14 11 10 8 8 8 9 8 8 8 10 11 11 11 11 11 11 11 11 11 11 11 12 12 12 12
12 13 10 11 12 11 10 10 12 11 11 11 11 11 10 10 11 10 11 10 7 8 8 6 4 12 8 5 7 5 5 8 8 6 5 4 4 4 3 2 3 2 2 3 3 3 4 4 4 4 4 4 4 5 5 5 6 10 14 14 12 10 9 7 8 8 8 8 9 10 10 11 11 10 10 10 10 10 10 10 10 11 11 12 12
11 13 11 12 11 11 11 11 12 12 11 10 11 12 12 11 12 11 13 12 10 8 9 7 8 5 3 6 3 3 6 5 10 6 6 5 5 3 3 2 2 2 2 3 3 4 4 4 4 4 4 4 4 4 4 4 5 6 7 11 11 11 10 9 8 9 9 10 9 9 10 10 10 10 10 10 10 10 10 10 11 11 12 12 12
9 11 11 11 12 12 12 12 12 11 11 10 9 9 10 11 12 11 12 11 10 10 10 7 7 6 6 5 2 2 5 7 9 5 7 6 4 4 4 3 1 2 2 3 3 3 4 4 4 4 4 4 4 4 5 5 5 6 6 8 12 11 11 10 9 9 10 10 10 10 10 10 10 10 11 11 11 11 11 11 11 11 11 12 12
9 10 11 11 10 11 11 12 12 12 11 11 11 12 11 11 10 10 11 10 10 11 12 11 6 6 5 4 3 2 2 10 7 6 5 6 6 5 5 4 2 3 4 3 4 4 4 4 4 4 4 4 4 4 4 5 7 7 11 12 12 11 11 11 10 10 10 10 10 10 10 11 11 11 11 11 11 10 11 11 11 11 11 11 11
10 11 12 12 11 11 11 11 11 11 11 12 12 11 10 8 11 11 9 10 10 11 11 10 13 9 7 6 3 1 3 4 3 7 5 7 7 4 3 4 4 4 4 4 5 4 5 4 4 4 4 4 3 3 4 4 5 6 7 13 12 12 12 11 11 11 11 11 11 11 11 11 11 11 11 11 10 10 10 10 10 11 11 11 12
10 10 11 13 12 12 12 12 11 11 10 10 10 12 14 14 13 11 12 10 9 10 9 10 11 9 9 6 4 4 3 1 2 2 4 6 6 8 7 5 3 4 4 4 4 4 4 4 4 4 4 4 3 3 3 4 4 5 8 12 12 12 12 12 11 10 11 11 12 11 11 11 12 11 11 11 10 10 10 10 10 10 11 11 12
9 10 10 11 11 12 11 13 13 11 10 12 11 12 12 12 14 14 13 13 10 9 10 9 11 7 10 8 8 5 4 4 4 4 1 2 3 8 9 10 9 7 5 5 5 5 5 5 5 4 4 4 4 4 4 4 4 4 7 11 11 11 11 11 10 9 10 11 11 11 12 12 12 12 12 11 11 10 10 10 10 11 11 12 12
9 9 10 11 11 11 11 12 11 11 11 12 12 13 13 12 12 13 13 15 11 10 8 7 9 7 10 9 10 11 10 9 9 7 7 6 4 5 6 8 8 8 6 5 5 5 5 5 6 5 5 5 4 4 4 5 5 5 5 9 9 10 10 9 9 8 9 10 10 11 11 11 11 12 12 11 11 11 11 12 11 12 12 13 13
8 9 10 12 11 10 10 10 11 11 12 11 11 12 12 12 11 12 12 13 11 10 10 9 11 8 10 9 9 10 9 8 8 9 9 7 8 6 7 6 3 4 5 5 4 5 6 6 5 6 5 5 4 4 4 4 5 8 3 6 8 8 8 8 8 8 8 9 9 10 10 11 11 11 11 11 11 11 11 11 12 12 12 13 13
10 11 11 14 12 11 11 12 11 11 11 11 10 11 10 10 11 11 11 13 13 13 11 11 11 11 10 9 8 8 8 5 6 8 7 6 7 6 5 7 6 5 5 5 5 5 5 6 6 5 6 5 5 4 4 3 3 5 4 2 5 7 7 7 7 7 7 8 8 8 9 9 10 10 9 10 10 10 11 11 11 11 12 12 12
10 11 11 12 11 12 12 12 12 10 10 10 9 9 9 9 10 11 12 11 10 12 11 10 10 10 7 8 9 7 6 4 6 6 7 7 8 8 8 4 2 6 4 5 5 6 6 6 6 6 5 6 5 5 4 3 4 6 4 2 1 4 6 5 6 6 6 6 6 7 7 7 8 8 8 8 9 9 10 11 11 11 12 12 12
9 8 9 11 13 12 12 11 11 10 9 10 8 9 9 9 8 9 8 8 9 10 10 10 10 11 10 9 8 7 6 5 5 7 7 8 9 9 11 9 4 4 6 5 5 9 6 7 7 6 6 6 6 5 4 4 4 5 2 1 1 1 3 4 5 5 5 5 5 5 6 6 6 6 7 7 9 9 10 10 11 11 12 12 12
7 7 9 9 11 12 11 12 11 10 10 11 10 10 10 11 9 9 10 6 9 12 11 10 10 11 12 9 7 8 6 7 6 6 7 8 7 8 10 10 10 7 6 6 7 8 8 8 5 7 7 7 6 5 5 4 3 4 3 1 1 1 1 4 6 6 5 5 4 4 4 4 4 5 6 7 8 9 9 10 11 12 12 13 13
7 6 7 8 10 11 11 11 12 11 11 12 11 11 10 11 10 11 12 10 11 12 11 11 11 10 10 11 10 7 7 6 6 5 6 6 6 6 9 11 10 9 8 9 10 9 10 10 8 9 9 7 7 6 6 5 4 1 0 2 2 2 2 6 7 6 6 5 4 4 4 4 4 5 6 8 8 9 9 10 11 12 12 12 12
6 4 6 8 9 11 11 11 12 12 12 12 11 12 11 11 12 11 12 11 12 10 11 11 10 10 9 9 9 8 7 7 7 6 6 7 6 7 8 8 8 9 9 10 9 9 8 10 7 7 10 9 7 6 5 4 7 2 2 3 3 3 4 8 9 8 7 6 5 4 4 4 3 4 6 7 7 8 9 9 10 10 10 10 11
7 7 8 9 9 10 11 12 11 12 13 13 12 12 13 11 11 11 11 11 11 12 11 10 9 9 11 11 10 9 7 8 7 7 6 6 7 7 6 5 5 6 8 8 6 5 7 10 9 7 10 10 8 7 5 4 6 4 4 5 5 4 6 8 10 10 9 7 6 5 4 4 4 4 5 6 7 7 8 8 9 10 10 11 11
7 8 8 9 10 10 10 11 12 12 13 13 13 13 13 13 12 12 12 13 13 13 11 10 8 9 11 12 12 10 8 8 8 8 8 7 7 7 7 6 6 5 4 6 8 6 5 6 8 8 10 10 9 8 7 5 5 7 5 5 4 5 7 6 10 11 9 7 6 5 5 4 4 4 5 6 7 8 8 9 10 10 11 11 11
8 8 9 9 10 10 11 11 12 12 13 13 12 12 13 14 14 14 13 13 14 12 11 12 11 11 13 13 12 12 9 10 9 8 8 9 8 7 6 6 7 6 7 7 8 6 4 3 7 7 9 10 8 9 9 7 7 7 6 5 5 5 5 5 5 9 8 7 6 5 5 4 3 5 6 6 7 7 8 9 9 10 10 10 11
9 9 10 9 9 10 10 12 12 12 12 13 13 12 14 14 15 10 12 13 14 14 12 12 13 10 11 12 12 11 10 11 9 10 10 10 10 9 8 9 8 8 8 8 8 8 9 6 6 7 7 9 8 10 9 9 7 5 5 5 5 5 5 5 5 5 8 7 6 5 4 3 4 5 6 6 6 8 8 9 9 10 10 11 12
9 9 10 10 9 9 10 10 11 12 13 13 12 13 14 15 15 13 12 13 14 14 14 14 12 9 8 9 10 9 6 10 10 9 8 10 9 10 9 8 9 8 8 8 7 7 9 8 8 8 8 8 8 8 8 5 4 4 5 6 6 5 5 6 5 4 7 7 6 5 4 4 5 6 6 7 7 9 10 10 10 11 11 12 12
9 9 9 11 10 9 9 10 11 11 11 12 13 13 15 15 15 14 13 13 12 13 15 14 12 11 13 11 10 9 8 10 9 9 8 8 8 7 7 6 7 9 9 8 7 8 8 9 9 9 8 9 7 7 7 5 6 6 6 5 6 6 6 6 6 5 5 8 7 6 6 5 5 6 7 8 9 10 11 12 12 12 12 11 12
9 9 8 9 10 9 8 9 9 11 11 12 13 14 14 14 15 14 13 14 13 13 13 13 15 13 12 14 10 12 11 9 9 9 8 11 8 6 7 6 6 6 6 7 8 7 9 9 8 7 7 7 7 7 8 7 7 7 7 7 7 8 8 7 5 5 7 9 7 6 5 5 5 6 8 9 11 12 12 12 12 11 11 11 12
12 10 10 8 7 11 10 9 9 9 8 9 12 13 13 13 13 14 14 13 14 14 14 11 10 9 13 12 10 15 12 13 11 10 9 11 7 7 9 6 6 6 7 8 7 7 7 8 9 10 8 9 8 7 8 8 8 8 8 8 8 8 8 8 8 6 5 4 3 3 3 4 3 6 9 10 12 12 11 11 11 11 11 11 12
11 11 11 10 8 7 10 10 11 11 12 12 11 9 10 11 12 13 13 12 11 10 11 15 17 13 8 8 10 15 16 15 13 14 13 12 8 7 6 6 7 7 8 8 8 9 8 8 8 8 9 8 9 8 8 8 7 7 8 9 9 9 8 7 6 5 4 3 3 4 4 4 7 7 8 11 12 12 12 11 11 12 11 12 12
10 10 11 12 10 9 8 10 10 9 11 13 14 14 13 13 11 12 12 10 11 10 10 11 12 16 12 10 9 12 15 14 14 12 18 16 7 10 7 7 7 7 7 6 7 8 8 9 9 9 9 10 8 7 8 8 7 7 8 8 8 9 8 7 5 5 4 3 3 3 5 6 5 5 7 8 8 10 11 11 11 11 12 12 12
9 9 10 10 11 10 8 8 11 12 12 11 10 10 10 11 11 10 12 10 10 12 12 13 11 11 10 10 13 15 16 23 27 23 24 21 16 11 8 8 8 7 5 5 7 7 7 7 7 7 8 9 10 10 11 11 12 10 10 8 6 5 4 4 5 5 5 4 4 4 3 1 3 4 4 4 5 7 8 10 10 12 11 11 13
9 9 9 9 10 11 11 10 9 9 11 12 14 19 18 11 13 13 14 14 13 12 13 14 15 16 15 13 12 23 23 23 23 23 16 18 17 14 13 12 11 10 8 7 7 7 7 7 7 9 9 10 11 12 12 11 9 7 8 8 6 5 4 3 3 4 5 4 3 3 2 0 3 5 4 4 4 5 5 6 5 7 12 15 15
10 10 10 10 9 8 10 12 13 11 9 10 18 17 19 22 16 15 14 14 14 14 12 14 15 15 14 14 11 18 20 21 20 19 19 20 23 16 9 8 13 24 19 14 7 9 8 6 7 7 8 9 10 10 10 10 9 9 8 7 6 5 5 4 3 4 5 5 3 1 2 1 2 5 5 5 5 5 6 6 10 13 14 15 15
9 8 10 10 10 10 9 11 11 12 11 15 18 17 19 21 20 13 12 13 13 11 12 13 13 13 13 12 10 9 10 14 14 14 18 20 21 22 16 15 17 18 22 22 20 11 8 6 7 8 8 9 10 11 10 11 10 9 8 7 7 6 5 3 3 3 5 6 4 2 5 3 3 5 6 6 5 6 6 9 12 15 15 14 14
9 9 11 11 11 10 10 12 12 12 12 15 17 18 19 21 22 19 14 14 14 13 12 12 14 14 12 11 9 10 12 24 18 13 13 14 19 20 18 16 17 22 21 17 12 6 8 16 13 10 11 9 10 10 11 12 11 10 9 8 8 7 6 5 4 4 6 6 3 3 5 5 3 5 6 6 5 5 7 10 15 16 15 14 14
9 10 11 10 10 10 10 11 12 12 13 14 16 18 19 21 23 20 15 16 15 15 13 13 13 15 15 11 11 12 12 14 14 15 13 13 13 14 13 11 12 15 19 19 18 13 6 6 9 13 7 6 7 9 11 12 13 11 10 9 9 8 8 6 4 3 3 3 3 3 4 5 5 6 7 6 5 6 7 10 14 15 15 15 15
10 10 10 11 12 11 10 10 10 12 11 15 15 17 18 21 23 21 15 15 15 15 13 13 14 15 15 13 14 14 14 16 14 17 15 13 15 12 9 11 10 12 12 13 13 10 9 7 5 5 6 7 6 9 10 10 9 7 7 8 8 7 5 3 1 2 3 4 5 5 5 3 4 5 6 5 5 6 7 10 15 16 15 15 15
9 9 10 9 12 14 12 12 11 13 12 16 16 17 19 21 24 16 14 15 16 16 16 13 12 13 13 12 12 13 13 15 17 24 19 13 18 18 13 10 10 9 10 11 13 10 8 8 6 5 5 7 8 9 10 9 8 6 5 5 4 4 6 5 4 3 4 4 7 7 5 4 5 5 6 4 5 7 7 7 11 15 14 14 14
12 10 10 11 10 11 14 13 12 13 13 13 15 18 19 22 19 14 14 12 13 17 16 15 11 12 11 11 11 11 12 13 19 27 25 17 16 18 15 13 12 9 9 10 15 16 14 11 9 10 10 11 12 14 15 14 9 7 7 8 7 8 8 5 4 4 5 4 5 7 4 5 5 5 5 4 6 7 7 7 7 10 13 13 17
14 13 12 11 11 11 13 14 11 12 13 15 17 18 19 21 19 14 13 14 14 12 12 11 10 10 13 21 16 12 12 13 21 28 28 22 19 18 17 15 17 12 11 10 9 11 17 14 13 12 13 14 14 14 14 15 14 12 10 8 9 9 7 6 5 4 3 4 5 6 5 6 4 3 4 4 6 6 7 7 6 6 9 14 17
14 13 12 12 12 11 11 13 17 16 14 15 16 19 21 21 18 13 14 15 14 12 12 10 9 10 10 16 22 16 13 14 24 28 30 25 20 19 16 12 13 15 14 15 14 13 13 11 11 11 11 14 11 10 11 17 16 14 8 7 8 8 7 6 5 2 2 5 6 8 5 5 4 4 2 2 3 4 4 5 6 6 8 8 9
Wind_Direction
188 187 184 187 183 175 174 176 176 174 176 180 175 175 173 165 156 155 150 145 142 134 125 114 114 100 102 112 118 102 109 110 103 103 116 130 113 55 353 16 20 33 56 92 139 155 147 138 132 126 119 119 122 131 116 91 85 88 88 84 82 77 73 69 68 63 61 59 58 60 61 55 55 52 57 55 53 49 47 48 47 46 44 42 40
186 185 184 185 180 174 177 178 177 174 179 183 180 179 173 166 158 152 148 144 143 130 138 123 105 103 104 117 116 121 109 108 114 126 123 107 97 103 21 6 14 57 59 87 96 108 119 130 128 121 121 117 114 120 108 95 94 93 92 81 77 78 72 67 64 68 67 63 59 61 56 54 50 50 51 53 53 51 49 44 43 43 42 40 38
187 184 183 182 178 177 185 177 180 178 182 182 175 182 171 169 164 157 153 150 142 138 145 135 129 124 118 144 131 130 116 113 114 113 118 106 106 97 79 24 13 18 70 81 99 87 103 120 111 117 131 122 110 110 111 110 103 94 98 90 74 71 70 73 66 65 65 65 64 62 55 50 48 49 51 51 53 51 49 45 43 41 39 38 35
187 181 184 181 181 182 183 180 185 177 182 177 172 176 168 146 136 130 134 142 137 143 142 148 146 140 147 151 162 147 137 131 132 123 102 102 116 117 110 87 40 22 27 73 72 78 65 67 78 76 89 114 120 109 95 97 102 108 94 79 79 74 74 76 64 59 63 65 65 60 57 52 49 48 50 51 52 51 46 42 40 39 37 36 34
186 182 183 183 181 179 181 183 183 177 176 169 162 161 152 148 136 137 139 140 142 137 135 147 144 147 160 155 151 136 133 141 132 129 123 125 116 118 115 108 94 57 39 32 45 59 63 62 69 82 88 103 104 103 94 94 87 85 103 101 85 86 92 86 70 64 63 67 66 61 58 56 51 48 50 50 49 46 43 40 39 37 35 33 31
186 183 185 185 181 182 181 182 180 170 166 161 169 171 166 157 150 153 152 159 156 152 160 162 152 152 157 158 158 144 141 138 131 127 138 131 128 120 122 122 112 98 71 49 33 34 49 62 66 71 83 75 76 77 83 92 96 96 95 95 100 84 74 69 70 73 68 67 67 63 59 57 52 49 48 47 45 43 42 39 36 35 34 32 29
185 180 185 187 183 184 185 184 171 166 168 174 174 172 167 162 159 159 156 161 159 158 172 161 155 153 150 157 143 138 137 125 126 130 133 129 128 120 118 116 117 115 114 106 61 33 34 42 50 51 54 58 67 78 80 92 105 112 111 113 97 88 90 81 74 75 76 68 66 64 59 56 54 49 47 46 43 41 40 38 34 32 30 28 27
182 181 183 189 188 187 185 175 161 167 173 173 177 173 167 160 165 161 156 162 162 163 174 155 146 136 136 134 129 140 128 125 127 132 128 137 121 115 107 96 95 85 92 100 93 59 38 41 44 48 49 48 47 75 90 99 102 113 118 110 100 94 84 82 83 81 77 73 69 67 64 59 52 51 46 42 39 36 33 31 30 28 27 26 24
184 184 188 187 188 186 180 162 165 174 174 175 182 177 163 155 157 166 164 157 166 162 165 152 129 117 111 113 119 135 130 125 138 129 129 119 113 105 95 87 79 80 82 80 94 96 58 49 50 42 38 48 51 66 79 94 112 110 113 108 103 98 91 86 79 77 73 69 65 62 58 55 53 48 40 36 32 31 29 25 25 25 24 24 21
185 184 191 186 187 185 169 163 171 177 173 175 184 171 166 164 155 158 155 157 169 169 163 135 116 116 111 112 124 124 111 119 122 136 126 113 108 100 98 94 84 69 72 74 76 83 99 76 69 57 35 37 51 62 64 92 115 114 110 106 98 88 83 79 71 66 63 62 60 56 54 52 47 44 37 35 32 29 28 26 23 24 21 19 17
183 183 189 184 185 182 167 170 176 177 172 176 171 166 164 170 155 148 147 159 170 172 154 128 114 107 107 104 99 94 93 104 132 126 111 95 89 84 85 93 84 74 77 74 70 75 72 86 90 87 61 39 53 59 57 70 100 111 107 104 92 81 73 69 64 60 59 57 53 46 44 44 41 37 34 29 26 22 23 19 17 18 15 14 11
183 184 189 185 186 182 173 169 179 177 175 177 172 177 173 163 158 152 154 145 142 138 133 130 113 103 100 94 86 82 90 101 108 109 115 119 123 127 110 105 97 85 75 72 73 65 70 71 82 90 94 68 55 49 37 25 55 88 101 89 82 75 67 63 56 53 51 49 46 42 40 38 34 33 31 28 25 25 22 21 19 16 14 15 11
185 184 191 185 186 175 168 172 178 181 184 186 179 173 169 165 152 156 158 160 170 165 153 138 131 116 108 114 104 88 84 94 124 129 138 142 140 131 120 114 106 99 87 78 77 69 75 72 73 80 86 101 83 56 48 40 37 57 52 43 74 71 64 57 48 44 50 46 43 40 41 37 34 32 28 25 21 18 16 15 14 12 12 11 10
186 188 191 187 185 174 171 171 177 184 188 183 171 160 158 159 152 153 176 172 170 175 165 155 165 161 153 148 140 135 119 128 140 148 157 142 140 128 125 109 102 108 118 110 97 95 85 85 81 80 77 82 80 63 59 56 47 47 55 55 51 50 52 49 45 43 41 45 42 41 41 34 30 25 21 17 14 12 10 9 7 7 5 4 4
187 188 192 190 184 174 176 174 180 179 179 177 173 171 176 170 170 167 163 182 169 179 183 201 175 163 152 137 165 164 170 201 178 175 168 153 142 131 123 117 106 109 120 124 127 116 99 92 95 91 89 88 85 86 81 70 63 49 44 45 49 44 43 44 45 42 39 36 46 41 34 32 26 22 19 14 11 9 6 7 6 5 3 2 3
191 192 190 186 185 180 174 177 182 183 184 180 179 182 176 175 178 177 164 163 177 188 209 211 218 149 166 216 163 191 169 209 185 174 170 165 168 150 142 136 134 143 128 123 125 123 119 113 108 108 101 94 92 88 80 75 83 73 52 34 37 44 42 45 46 44 38 34 37 36 29 27 21 18 15 13 10 9 4 5 5 4 3 2 2
194 195 196 190 187 183 181 181 180 184 186 184 183 186 180 180 178 174 180 174 172 178 200 209 236 267 191 138 133 216 233 150 162 166 177 182 185 173 148 160 143 147 124 118 124 126 125 125 119 116 116 109 100 95 86 75 65 44 49 34 30 35 42 39 41 40 37 33 30 29 27 23 19 15 14 11 12 7 5 6 4 2 2 1 0
203 197 200 197 194 190 185 180 182 181 189 189 181 175 181 180 184 182 183 190 173 166 184 208 232 244 266 316 345 233 177 142 163 181 175 205 169 189 179 182 179 157 142 129 140 135 129 129 129 127 126 121 111 104 96 75 60 50 33 26 26 30 35 39 40 36 34 30 25 21 20 18 16 15 13 11 10 8 4 6 2 360 359 358 358
210 204 204 204 202 197 191 187 185 186 185 185 182 184 182 184 178 189 189 184 176 180 181 186 197 252 241 255 290 250 277 140 199 126 174 186 209 197 201 194 190 177 154 143 147 148 139 136 138 137 133 136 125 117 105 95 78 72 43 25 24 24 26 29 30 28 27 25 21 21 19 16 14 13 11 8 7 5 359 2 358 355 355 356 355
208 203 204 202 202 201 198 194 191 191 185 190 186 180 176 180 186 191 185 193 188 188 183 178 184 199 192 217 239 258 273 317 212 196 177 166 184 186 201 180 195 184 160 151 154 153 147 145 147 152 148 138 134 120 104 82 64 48 35 21 20 18 18 19 17 17 16 17 19 16 15 12 10 8 3 3 1 358 358 357 354 353 355 357 356
215 212 206 204 201 202 198 198 196 194 190 195 190 181 180 178 180 187 189 191 194 202 188 183 193 185 160 201 193 192 193 258 297 277 200 189 169 180 181 166 202 182 169 157 154 154 153 150 149 160 149 141 135 120 98 83 66 56 36 20 16 12 10 11 10 11 11 10 9 9 8 4 3 359 358 355 356 355 355 356 355 354 356 358 358
207 213 213 214 209 204 202 201 199 195 190 198 188 181 185 186 186 187 187 187 194 203 201 185 195 182 180 165 177 167 183 190 201 189 64 259 207 186 175 171 184 183 172 166 160 158 159 153 160 166 159 148 138 126 101 81 66 48 35 22 14 10 8 8 6 6 8 3 4 2 360 359 357 354 355 351 353 352 353 353 355 357 358 357 357
203 207 209 212 216 213 210 206 204 198 193 198 194 191 189 187 187 190 190 189 189 191 202 195 192 175 185 182 184 179 182 186 185 190 188 174 171 161 163 184 186 159 181 160 162 164 162 165 169 170 161 152 143 129 112 100 87 57 49 28 15 10 9 6 1 2 2 358 359 357 356 355 352 349 351 348 351 351 353 351 356 357 356 356 354
201 206 207 207 209 212 214 212 210 207 204 205 201 194 191 187 187 192 196 195 190 185 195 193 192 187 192 195 197 195 199 191 184 181 184 189 187 174 164 145 135 145 140 161 167 171 172 173 178 171 166 153 148 130 128 126 101 64 16 42 13 12 8 4 359 355 354 356 353 353 350 348 348 347 347 345 350 351 351 351 354 354 353 353 353
206 207 206 201 202 205 206 211 214 214 212 209 207 198 191 190 191 193 196 192 194 190 191 197 188 193 194 199 206 203 204 191 174 178 187 180 186 146 141 164 180 157 163 174 175 180 182 185 177 180 168 160 146 154 138 135 104 68 25 31 20 9 4 359 353 348 348 348 347 345 343 338 341 342 341 341 346 347 348 346 350 351 351 350 350
210 209 205 197 199 206 206 209 213 215 210 210 210 202 198 199 199 200 202 200 193 189 197 194 191 199 190 193 208 205 208 175 189 175 172 166 183 168 146 144 135 157 147 186 174 172 196 196 184 179 174 162 159 155 158 132 134 95 42 331 41 16 357 349 340 332 335 335 334 335 332 331 329 335 335 337 339 343 342 343 348 350 350 349 349
221 216 200 196 199 202 205 207 210 211 206 208 208 204 203 205 208 208 210 204 200 193 204 194 194 194 200 201 196 203 200 183 191 189 176 182 181 165 151 151 156 160 176 188 187 218 184 180 181 184 180 169 167 162 159 146 113 104 349 284 329 26 334 327 314 314 319 317 318 321 322 319 325 327 331 333 335 342 339 343 347 348 350 349 349
234 216 205 198 197 200 202 205 206 208 208 211 210 210 206 207 209 205 208 199 200 200 206 199 202 195 200 199 198 206 191 188 198 188 183 184 181 166 169 165 160 174 186 192 201 218 191 170 180 193 180 176 167 164 125 136 142 127 202 268 288 266 267 291 297 307 306 303 302 305 301 308 308 315 327 332 335 338 337 344 346 348 350 349 348
240 218 212 206 205 204 208 209 208 208 207 207 208 210 206 207 210 205 208 202 205 204 204 204 204 195 201 195 204 199 192 186 196 193 184 182 184 178 184 186 184 170 174 196 204 193 191 190 179 190 183 178 168 160 164 192 121 134 319 264 259 258 255 273 283 287 284 281 280 272 282 297 303 318 325 331 335 332 334 343 346 347 345 342 338
229 219 219 219 213 207 212 210 209 208 209 207 205 208 208 214 215 212 208 198 202 208 208 206 199 194 196 193 203 207 183 186 196 189 187 186 181 186 192 201 204 196 180 188 198 189 173 188 193 170 179 178 172 168 170 182 123 169 207 246 248 251 268 278 279 273 270 272 266 261 265 282 302 316 320 319 322 325 334 339 339 338 336 334 331
231 228 220 223 220 216 214 217 212 210 209 209 206 207 206 212 213 217 210 203 202 210 210 203 201 190 196 197 199 208 181 192 190 186 187 182 187 185 192 193 205 222 197 196 191 178 167 177 191 172 168 175 168 163 162 181 156 180 218 223 224 224 254 262 255 250 252 251 250 241 243 263 287 298 302 307 314 322 328 330 330 333 331 328 329
238 228 225 219 217 215 214 215 215 211 209 209 206 209 207 212 212 212 211 203 209 211 208 201 197 195 196 200 199 202 182 187 192 189 186 189 186 185 185 188 199 205 213 204 211 162 167 175 171 161 168 168 169 170 175 179 156 192 221 218 217 225 240 229 223 234 240 247 251 250 250 258 283 297 305 314 319 324 326 324 324 324 324 327 333
250 237 229 224 218 215 213 213 215 214 211 210 207 208 211 214 214 211 207 200 205 210 207 203 201 199 204 204 201 202 178 189 193 185 187 186 184 185 178 181 187 185 190 198 199 139 132 134 153 160 163 163 174 184 184 182 184 192 204 224 225 228 233 236 221 216 234 248 253 252 251 271 298 309 315 318 317 316 317 316 318 321 324 332 336
251 245 241 233 225 219 217 217 213 216 216 214 211 209 214 215 216 211 205 196 200 205 204 205 199 198 202 202 202 196 187 196 188 188 187 182 184 182 185 183 187 180 192 187 196 163 165 162 161 153 161 176 180 185 189 187 187 188 203 216 226 229 233 237 233 212 212 241 246 247 262 278 290 294 298 302 304 306 309 315 318 324 331 339 341
267 254 250 242 231 221 220 217 216 217 216 215 213 213 217 217 217 213 206 200 200 199 203 205 194 185 192 204 203 185 172 197 201 195 183 185 183 185 178 178 182 179 179 193 183 178 164 173 166 161 171 180 191 177 183 185 184 191 210 220 225 225 230 235 235 228 218 240 249 252 256 265 269 278 290 300 308 312 314 319 329 335 339 340 339
279 268 251 252 246 231 226 222 219 217 212 214 216 215 216 217 219 220 213 211 207 204 203 198 186 184 198 201 202 177 177 198 199 191 191 186 181 180 166 168 179 172 172 178 193 180 167 157 180 177 173 169 190 176 171 177 187 200 211 222 223 232 231 223 228 230 214 232 243 242 244 251 266 281 298 309 313 315 320 328 334 335 334 334 332
278 271 260 244 248 241 230 223 219 220 218 215 218 219 218 219 220 219 214 210 209 212 211 202 194 184 189 201 192 166 172 197 196 196 187 188 185 170 173 168 169 158 152 173 178 178 171 171 160 171 166 173 177 176 174 178 190 202 206 214 221 224 227 225 222 223 224 231 234 233 239 255 277 295 305 308 315 321 324 326 325 325 325 325 325
300 280 268 256 234 243 239 231 223 221 215 216 220 222 221 219 219 221 220 214 212 211 211 212 205 194 193 193 175 177 181 198 198 190 177 186 175 184 178 163 159 145 156 169 174 173 175 173 159 156 173 170 173 188 188 190 185 187 195 208 218 225 221 217 209 200 204 200 196 196 213 242 249 300 300 306 310 312 314 314 314 316 318 319 318
306 298 286 264 248 244 245 241 236 232 229 227 225 219 217 218 219 219 222 217 209 208 214 215 213 217 219 201 170 182 194 201 196 186 180 182 187 185 169 155 149 153 164 170 170 172 176 167 165 173 170 180 177 179 184 192 202 200 191 189 205 208 210 209 194 183 187 198 205 221 244 273 279 281 295 303 303 301 302 306 311 312 314 312 308
313 303 292 285 268 248 241 245 241 236 234 234 233 230 226 225 220 219 219 215 211 211 216 214 214 217 210 207 202 197 199 193 192 173 173 178 176 188 183 159 161 160 165 160 162 172 175 176 175 173 175 172 178 171 158 176 192 210 212 207 196 185 193 190 191 174 173 185 199 181 203 224 241 276 303 304 299 300 303 306 306 305 300 298 299
314 306 294 285 279 267 251 237 242 246 246 239 233 223 216 218 213 211 217 219 210 217 218 218 211 208 211 207 210 212 212 210 207 202 199 191 171 179 178 168 162 164 155 165 176 173 176 171 177 177 173 176 178 171 175 188 196 198 186 195 207 197 198 189 176 175 182 185 191 194 202 248 299 299 306 308 303 306 299 295 290 284 288 297 306
311 309 302 288 277 274 269 256 244 235 239 245 241 237 233 229 229 233 233 233 228 222 218 218 218 217 218 214 218 219 216 216 215 212 203 196 198 188 167 167 165 159 164 167 175 179 171 178 185 176 179 190 182 182 183 191 187 166 168 188 195 189 191 201 184 181 174 180 197 217 215 272 309 298 292 291 290 283 282 287 289 298 298 302 305
315 312 311 302 286 267 264 267 262 253 239 237 241 235 231 227 227 232 231 232 231 229 221 214 216 213 214 211 210 215 215 213 213 208 204 201 202 208 209 201 177 161 165 167 179 164 178 191 178 184 191 181 181 174 177 168 174 180 182 186 187 182 195 186 168 140 173 176 192 255 276 269 274 277 274 265 262 262 263 268 278 284 288 294 297
317 315 307 295 295 289 275 266 257 254 252 248 241 236 230 226 221 223 225 230 227 227 224 216 218 214 210 206 200 188 189 199 197 196 202 205 207 207 203 199 202 205 192 176 159 171 198 175 183 198 179 187 168 170 170 167 173 176 184 184 185 186 187 201 180 162 138 150 165 230 276 270 217 238 255 254 252 253 256 264 273 276 278 284 289
309 305 309 302 290 281 275 277 271 261 256 254 248 236 230 227 223 217 229 228 228 230 225 220 218 218 209 195 193 189 200 205 201 195 191 195 205 206 208 203 205 204 207 222 262 308 179 164 176 179 192 174 166 180 174 169 165 168 174 181 183 185 193 194 193 161 149 147 169 235 266 265 213 223 246 249 251 251 255 257 260 266 272 276 281
308 303 303 297 296 292 280 275 272 270 267 266 251 243 235 226 225 221 227 229 230 231 225 218 219 220 213 192 193 195 189 187 190 191 183 185 184 191 196 199 203 207 209 210 211 225 258 218 173 186 186 175 176 162 166 164 167 172 175 180 178 181 190 193 180 179 152 129 194 233 262 251 231 222 238 254 249 247 249 257 261 266 271 273 275
302 300 301 299 300 295 287 278 275 271 266 266 260 247 242 233 228 224 228 229 231 233 229 222 222 221 219 206 200 200 190 187 186 181 178 174 180 177 174 192 197 200 201 199 198 195 197 206 228 204 169 167 153 151 157 167 171 170 173 168 172 176 173 167 205 252 249 223 204 207 230 243 196 213 239 250 248 251 256 260 259 262 263 263 267
288 288 288 286 290 296 292 288 280 275 269 267 261 252 246 242 236 228 231 231 232 234 233 226 218 219 218 203 197 198 190 193 184 182 180 167 185 187 176 173 181 190 200 200 188 178 178 190 196 186 168 166 158 152 156 157 159 155 143 149 150 138 150 177 215 227 228 231 198 207 229 242 234 230 245 252 261 258 254 251 253 254 253 256 265
290 287 282 280 281 284 288 288 279 274 275 268 260 256 253 249 243 237 233 231 230 233 233 230 213 210 203 190 193 196 187 194 185 189 186 168 187 190 190 176 179 173 189 185 187 183 181 184 166 165 166 166 158 154 157 160 158 160 156 153 167 167 177 193 213 216 227 202 191 210 233 248 239 225 245 254 251 258 259 252 244 237 237 254 274
291 285 281 281 275 272 278 283 274 277 277 274 269 262 255 251 243 241 237 237 231 225 228 218 210 209 209 209 205 197 189 192 183 190 190 182 191 194 194 188 187 182 179 169 165 182 181 177 173 172 177 176 166 162 164 167 170 175 170 178 175 180 195 195 192 195 204 190 210 195 204 239 231 226 244 263 254 248 242 239 220 221 244 267 268
286 288 285 280 279 274 270 274 279 275 273 274 266 261 255 250 244 239 242 241 238 229 223 220 206 213 203 211 207 203 189 182 182 191 193 190 195 194 192 177 185 189 180 166 165 165 170 170 177 175 182 180 174 174 178 179 183 176 177 186 188 188 191 194 187 168 239 238 184 174 204 240 194 242 169 263 231 218 201 216 203 243 260 261 270